| time (UTC) | temp F | wind direction | speed knots | gust knots | rain 1hr in | rain 24hr in | rain mn in | humidity % | barometer mb |
| 20260905133948 | 71 | 84 | 0.9 | 10.4 | 0.00 | 0.00 | 0.00 | 78 | 1008.2 |
| 20260905132444 | 71 | 47 | 2.6 | 6.1 | 0.00 | 0.00 | 0.00 | 78 | 1008.2 |
| 20260905130941 | 71 | 49 | 7.8 | 7.8 | 0.00 | 0.00 | 0.00 | 80 | 1008.1 |
| 20260905125441 | 69 | 358 | 2.6 | 5.2 | 0.00 | 0.00 | 0.00 | 81 | 1008.2 |
| 20260905123940 | 68 | 7 | 6.1 | 6.1 | 0.00 | 0.00 | 0.00 | 83 | 1008.1 |
| 20260905122436 | 68 | 3 | 4.3 | 4.3 | 0.00 | 0.00 | 0.00 | 83 | 1007.9 |
| 20260905120932 | 67 | 41 | 1.7 | 5.2 | 0.00 | 0.00 | 0.00 | 85 | 1007.8 |
| 20260905115427 | 67 | 208 | 2.6 | 3.5 | 0.00 | 0.00 | 0.00 | 85 | 1007.7 |
| 20260905113927 | 66 | 328 | 6.1 | 7.8 | 0.00 | 0.00 | 0.00 | 86 | 1007.8 |
| 20260905112424 | 65 | 106 | 0.0 | 5.2 | 0.00 | 0.00 | 0.00 | 88 | 1007.8 |
| 20260905110920 | 64 | 355 | 0.9 | 3.5 | 0.00 | 0.00 | 0.00 | 89 | 1007.6 |
| 20260905105414 | 63 | 33 | 1.7 | 1.7 | 0.00 | 0.00 | 0.00 | 91 | 1007.5 |
| 20260905103909 | 63 | 294 | 0.0 | 1.7 | 0.00 | 0.00 | 0.00 | 92 | 1007.3 |
| 20260905102409 | 62 | 354 | 0.0 | 4.3 | 0.00 | 0.00 | 0.00 | 92 | 1007.2 |
| 20260905100908 | 62 | 11 | 0.0 | 3.5 | 0.00 | 0.00 | 0.00 | 92 | 1007.0 |
| 20260905095404 | 63 | 262 | 2.6 | 3.5 | 0.00 | 0.00 | 0.00 | 91 | 1007.2 |
| 20260905093904 | 63 | 5 | 0.9 | 3.5 | 0.00 | 0.00 | 0.00 | 91 | 1007.0 |
| 20260905092402 | 63 | 327 | 0.0 | 2.6 | 0.00 | 0.00 | 0.00 | 91 | 1007.1 |
| 20260905090901 | 64 | 26 | 0.9 | 1.7 | 0.00 | 0.00 | 0.00 | 90 | 1006.9 |
| 20260905085356 | 64 | 358 | 3.5 | 5.2 | 0.00 | 0.00 | 0.00 | 89 | 1006.9 |
| 20260905083852 | 64 | 0 | 2.6 | 4.3 | 0.00 | 0.00 | 0.00 | 89 | 1007.2 |
| 20260905082351 | 65 | 0 | 3.5 | 3.5 | 0.00 | 0.00 | 0.00 | 88 | 1007.0 |
| 20260905080852 | 65 | 16 | 1.7 | 3.5 | 0.00 | 0.00 | 0.00 | 87 | 1007.1 |
| 20260905075351 | 65 | 306 | 0.0 | 1.7 | 0.00 | 0.00 | 0.00 | 87 | 1007.1 |
| 20260905073847 | 66 | 331 | 0.0 | 2.6 | 0.00 | 0.00 | 0.00 | 87 | 1007.0 |
| 20260905072344 | 66 | 344 | 3.5 | 6.1 | 0.00 | 0.00 | 0.00 | 87 | 1007.4 |
| 20260905070842 | 66 | 326 | 3.5 | 4.3 | 0.00 | 0.00 | 0.00 | 86 | 1007.2 |
| 20260905065342 | 67 | 324 | 0.0 | 4.3 | 0.00 | 0.00 | 0.00 | 85 | 1007.5 |
| 20260905063837 | 67 | 294 | 0.9 | 2.6 | 0.00 | 0.00 | 0.00 | 85 | 1007.3 |
| 20260905062336 | 67 | 0 | 0.0 | 2.6 | 0.00 | 0.00 | 0.00 | 85 | 1007.6 |
| 20260905060831 | 67 | 315 | 0.0 | 1.7 | 0.00 | 0.00 | 0.00 | 85 | 1007.8 |
| 20260905055328 | 67 | 334 | 0.9 | 3.5 | 0.00 | 0.00 | 0.00 | 84 | 1007.7 |
| 20260905053824 | 68 | 300 | 0.0 | 2.6 | 0.00 | 0.00 | 0.00 | 84 | 1007.8 |
| 20260905052319 | 68 | 270 | 0.0 | 2.6 | 0.00 | 0.00 | 0.00 | 83 | 1007.9 |
| 20260905050817 | 68 | 344 | 0.0 | 5.2 | 0.00 | 0.00 | 0.00 | 82 | 1007.9 |
| 20260905045315 | 68 | 332 | 0.0 | 2.6 | 0.00 | 0.00 | 0.00 | 83 | 1008.2 |
| 20260905043815 | 68 | 353 | 0.0 | 2.6 | 0.00 | 0.00 | 0.00 | 85 | 1008.0 |
| 20260905042310 | 68 | 307 | 0.0 | 3.5 | 0.00 | 0.00 | 0.00 | 86 | 1008.0 |
| 20260905040808 | 67 | 278 | 0.0 | 1.7 | 0.00 | 0.00 | 0.00 | 87 | 1008.2 |
| 20260905035306 | 68 | 173 | 0.0 | 0.9 | 0.00 | 0.00 | 0.00 | 86 | 1008.0 |
| 20260905033758 | 69 | 297 | 0.0 | 0.0 | 0.00 | 0.00 | 0.00 | 82 | 1008.0 |
| 20260905032254 | 70 | 315 | 1.7 | 1.7 | 0.00 | 0.00 | 0.00 | 81 | 1008.1 |
| 20260905030752 | 70 | 291 | 0.0 | 1.7 | 0.00 | 0.00 | 0.00 | 80 | 1007.5 |
| 20260905025249 | 71 | 18 | 0.9 | 3.5 | 0.00 | 0.00 | 0.00 | 78 | 1007.8 |
| 20260905023747 | 71 | 353 | 0.9 | 2.6 | 0.00 | 0.00 | 0.00 | 78 | 1007.7 |
| 20260905022242 | 71 | 8 | 0.0 | 1.7 | 0.00 | 0.00 | 0.00 | 77 | 1007.5 |
| 20260905020737 | 72 | 23 | 0.9 | 1.7 | 0.00 | 0.00 | 0.00 | 76 | 1007.5 |
| 20260905015232 | 73 | 355 | 1.7 | 3.5 | 0.00 | 0.00 | 0.00 | 74 | 1007.7 |
| 20260905013728 | 73 | 353 | 0.0 | 2.6 | 0.00 | 0.00 | 0.00 | 74 | 1008.1 |
| 20260905012227 | 73 | 0 | 0.0 | 1.7 | 0.00 | 0.00 | 0.00 | 72 | 1008.1 |
| 20260905010725 | 74 | 333 | 2.6 | 3.5 | 0.00 | 0.00 | 0.00 | 71 | 1008.1 |
| 20260905005224 | 74 | 319 | 3.5 | 7.0 | 0.00 | 0.00 | 0.00 | 70 | 1008.1 |
| 20260905003720 | 75 | 334 | 1.7 | 4.3 | 0.00 | 0.00 | 0.00 | 69 | 1008.0 |
| 20260905002216 | 75 | 270 | 0.0 | 5.2 | 0.00 | 0.00 | 0.00 | 69 | 1007.9 |
| 20260905000712 | 75 | 344 | 0.0 | 4.3 | 0.00 | 0.00 | 0.00 | 69 | 1007.7 |
| 20260904235208 | 75 | 337 | 0.0 | 2.6 | 0.00 | 0.00 | 0.00 | 69 | 1007.6 |
| 20260904233706 | 76 | 331 | 0.0 | 3.5 | 0.00 | 0.00 | 0.00 | 66 | 1007.3 |
| 20260904232206 | 76 | 0 | 0.0 | 3.5 | 0.00 | 0.00 | 0.00 | 67 | 1007.3 |
| 20260904230702 | 77 | 315 | 0.0 | 3.5 | 0.00 | 0.00 | 0.00 | 65 | 1007.3 |
| 20260904225202 | 78 | 348 | 0.0 | 2.6 | 0.00 | 0.00 | 0.00 | 64 | 1007.2 |
| 20260904223702 | 79 | 15 | 0.0 | 5.2 | 0.00 | 0.00 | 0.00 | 62 | 1007.2 |
| 20260904222200 | 81 | 307 | 1.7 | 3.5 | 0.00 | 0.00 | 0.00 | 58 | 1007.2 |
| 20260904220701 | 81 | 305 | 5.2 | 5.2 | 0.00 | 0.00 | 0.00 | 58 | 1007.1 |
| 20260904215158 | 81 | 314 | 3.5 | 6.1 | 0.00 | 0.00 | 0.00 | 56 | 1006.9 |
| 20260904213657 | 83 | 321 | 7.8 | 9.6 | 0.00 | 0.00 | 0.00 | 53 | 1007.2 |
| 20260904212155 | 83 | 349 | 4.3 | 12.2 | 0.00 | 0.00 | 0.00 | 51 | 1006.9 |
| 20260904210651 | 82 | 0 | 4.3 | 8.7 | 0.00 | 0.00 | 0.00 | 53 | 1007.0 |
| 20260904205149 | 84 | 0 | 1.7 | 6.1 | 0.00 | 0.00 | 0.00 | 48 | 1006.8 |
| 20260904203649 | 83 | 335 | 7.0 | 12.2 | 0.00 | 0.00 | 0.00 | 48 | 1007.0 |
| 20260904202143 | 85 | 288 | 0.0 | 8.7 | 0.00 | 0.00 | 0.00 | 49 | 1006.9 |
| 20260904200643 | 86 | 329 | 4.3 | 6.1 | 0.00 | 0.00 | 0.00 | 51 | 1007.1 |
| 20260904195143 | 86 | 288 | 2.6 | 7.0 | 0.00 | 0.00 | 0.00 | 52 | 1007.0 |
| 20260904193638 | 85 | 326 | 6.1 | 7.8 | 0.00 | 0.00 | 0.00 | 54 | 1007.3 |
| 20260904192136 | 84 | 351 | 1.7 | 9.6 | 0.00 | 0.00 | 0.00 | 58 | 1006.9 |
| 20260904190637 | 85 | 312 | 5.2 | 10.4 | 0.00 | 0.00 | 0.00 | 56 | 1007.3 |
| 20260904185135 | 82 | 326 | 4.3 | 7.8 | 0.00 | 0.00 | 0.00 | 57 | 1007.0 |
| 20260904183631 | 87 | 67 | 0.0 | 2.6 | 0.00 | 0.00 | 0.00 | 54 | 1007.0 |
| 20260904182127 | 84 | 315 | 3.5 | 5.2 | 0.00 | 0.00 | 0.00 | 57 | 1007.2 |
| 20260904180625 | 86 | 0 | 2.6 | 7.0 | 0.00 | 0.00 | 0.00 | 54 | 1007.2 |
| 20260904175123 | 85 | 345 | 0.9 | 7.8 | 0.00 | 0.00 | 0.00 | 55 | 1007.3 |
| 20260904173621 | 86 | 26 | 0.9 | 6.1 | 0.00 | 0.00 | 0.00 | 54 | 1007.3 |
| 20260904172117 | 84 | 339 | 3.5 | 9.6 | 0.00 | 0.00 | 0.00 | 56 | 1007.6 |
| 20260904170616 | 85 | 54 | 0.9 | 5.2 | 0.00 | 0.00 | 0.00 | 57 | 1007.5 |
| 20260904165115 | 83 | 262 | 0.0 | 6.1 | 0.00 | 0.00 | 0.00 | 60 | 1007.5 |
| 20260904163612 | 83 | 10 | 4.3 | 7.0 | 0.00 | 0.00 | 0.00 | 60 | 1007.7 |
| 20260904162108 | 82 | 0 | 0.9 | 5.2 | 0.00 | 0.00 | 0.00 | 63 | 1007.7 |
| 20260904160606 | 82 | 173 | 0.0 | 7.8 | 0.00 | 0.00 | 0.00 | 62 | 1007.8 |
| 20260904155102 | 82 | 350 | 1.7 | 7.0 | 0.00 | 0.00 | 0.00 | 66 | 1008.0 |
| 20260904153601 | 82 | 105 | 0.9 | 6.1 | 0.00 | 0.00 | 0.00 | 66 | 1008.2 |
| 20260904152100 | 81 | 0 | 2.6 | 7.8 | 0.00 | 0.00 | 0.00 | 67 | 1008.1 |
| 20260904150555 | 80 | 322 | 4.3 | 8.7 | 0.00 | 0.00 | 0.00 | 69 | 1008.1 |
| 20260904145050 | 81 | 90 | 1.7 | 11.3 | 0.00 | 0.00 | 0.00 | 67 | 1008.1 |
| 20260904143549 | 81 | 293 | 2.6 | 4.3 | 0.00 | 0.00 | 0.00 | 68 | 1008.0 |
| 20260904142048 | 80 | 116 | 0.0 | 4.3 | 0.00 | 0.00 | 0.00 | 74 | 1008.1 |
| 20260904140545 | 78 | 6 | 5.2 | 7.8 | 0.00 | 0.00 | 0.00 | 81 | 1008.3 |
| 20260904135041 | 77 | 352 | 2.6 | 4.3 | 0.00 | 0.00 | 0.00 | 85 | 1008.3 |